EXPRESS-AM33

Last updated on Nov. 19, 2019, 4:25 a.m. UTC

1 32478U 08003A   19321.66170481 -.00000274  00000-0  00000-0 0  9998
2 32478   0.0008 272.7595 0000809  49.4633  68.9457  1.00270755 43516
UTC
Height (km)
Latitude
Longitude
Inclination
Orbital Period
UTC large
Height (km)
Speed (km/s)
/
Latitude / Longitude
Inclination (degrees)
Orbital Period (minutes)
Azimuth
Elevation
Range (km)
Doppler Factor
iOS Compass Heading
iOS Angle

Next 30 passes for location: Hong Kong

Rise time Rise Azimuth (degrees) Set time Set Azimuth (degrees) Duration Max altitude (degrees)

No matching passes for this satellites